TimeCST,TemperatureF,Dew PointF,Humidity,Sea Level PressureIn,VisibilityMPH,Wind Direction,Wind SpeedMPH,Gust SpeedMPH,PrecipitationIn,Events,Conditions,WindDirDegrees,DateUTC
12:15 AM,41.5,18.7,40,30.37,10.0,NE,5.8,-,N/A,,Overcast,50,2014-01-09 06:15:00
12:35 AM,41.5,19.2,41,30.36,10.0,ENE,6.9,-,N/A,,Overcast,70,2014-01-09 06:35:00
12:55 AM,41.5,19.4,41,30.35,10.0,NE,5.8,-,N/A,,Overcast,50,2014-01-09 06:55:00
1:15 AM,41.0,19.9,43,30.35,10.0,NE,5.8,-,N/A,,Overcast,40,2014-01-09 07:15:00
1:35 AM,40.8,20.5,44,30.35,10.0,ENE,4.6,-,N/A,,Overcast,60,2014-01-09 07:35:00
1:55 AM,40.1,20.7,46,30.35,10.0,ENE,4.6,-,N/A,,Overcast,70,2014-01-09 07:55:00
2:15 AM,40.3,20.1,45,30.35,10.0,NE,5.8,-,N/A,,Overcast,50,2014-01-09 08:15:00
2:35 AM,40.1,20.5,45,30.36,10.0,NNE,6.9,-,N/A,,Mostly Cloudy,20,2014-01-09 08:35:00
2:55 AM,41.2,21.6,46,30.36,10.0,NE,6.9,-,N/A,,Overcast,40,2014-01-09 08:55:00
3:15 AM,41.2,22.1,47,30.36,10.0,NE,9.2,-,N/A,,Overcast,40,2014-01-09 09:15:00
3:35 AM,41.4,23.0,48,30.36,10.0,NE,6.9,-,N/A,,Overcast,50,2014-01-09 09:35:00
3:55 AM,41.4,23.7,50,30.35,10.0,ENE,8.1,-,N/A,,Overcast,60,2014-01-09 09:55:00
4:15 AM,41.5,24.3,50,30.35,10.0,ENE,8.1,-,N/A,,Overcast,60,2014-01-09 10:15:00
4:35 AM,41.5,24.6,51,30.35,10.0,NE,5.8,-,N/A,,Overcast,50,2014-01-09 10:35:00
4:55 AM,41.9,25.3,52,30.35,10.0,ENE,6.9,-,N/A,,Overcast,60,2014-01-09 10:55:00
5:15 AM,41.9,25.5,52,30.35,10.0,NE,6.9,-,N/A,,Overcast,50,2014-01-09 11:15:00
5:35 AM,42.1,26.1,53,30.35,10.0,ENE,8.1,-,N/A,,Overcast,60,2014-01-09 11:35:00
5:55 AM,42.3,26.4,54,30.36,10.0,ENE,6.9,-,N/A,,Overcast,70,2014-01-09 11:55:00
6:15 AM,42.4,27.1,55,30.36,10.0,ENE,8.1,-,N/A,,Overcast,70,2014-01-09 12:15:00
6:35 AM,42.4,27.5,56,30.36,10.0,ENE,4.6,-,N/A,,Overcast,60,2014-01-09 12:35:00
6:55 AM,42.8,28.0,56,30.37,10.0,ENE,6.9,-,N/A,,Overcast,70,2014-01-09 12:55:00
7:15 AM,42.8,28.8,58,30.37,10.0,ENE,6.9,-,N/A,,Overcast,60,2014-01-09 13:15:00
7:35 AM,43.0,29.7,59,30.38,10.0,ENE,6.9,-,N/A,,Overcast,60,2014-01-09 13:35:00
7:55 AM,43.2,31.8,64,30.38,10.0,ENE,9.2,-,N/A,,Overcast,60,2014-01-09 13:55:00
8:15 AM,43.5,32.9,66,30.38,10.0,ENE,6.9,-,N/A,,Overcast,60,2014-01-09 14:15:00
8:35 AM,44.2,32.7,64,30.39,10.0,ENE,9.2,-,N/A,,Overcast,60,2014-01-09 14:35:00
8:55 AM,44.4,33.6,66,30.39,10.0,ENE,8.1,-,N/A,,Overcast,60,2014-01-09 14:55:00
9:15 AM,44.4,34.5,68,30.40,10.0,ENE,9.2,-,N/A,,Overcast,70,2014-01-09 15:15:00
9:35 AM,44.2,35.8,72,30.41,10.0,ENE,6.9,-,N/A,,Overcast,70,2014-01-09 15:35:00
9:55 AM,42.4,39.4,89,30.41,3.0,NE,6.9,-,N/A,,Heavy Drizzle,40,2014-01-09 15:55:00
10:15 AM,42.1,41.0,96,30.39,3.0,NNE,8.1,-,N/A,,Drizzle,30,2014-01-09 16:15:00
10:35 AM,42.8,41.7,96,30.38,7.0,NE,8.1,-,N/A,,Overcast,40,2014-01-09 16:35:00
10:55 AM,42.8,42.3,98,30.37,3.0,NE,6.9,-,N/A,Rain,Rain,40,2014-01-09 16:55:00
11:15 AM,42.8,42.1,97,30.35,5.0,NE,6.9,-,N/A,,Light Drizzle,50,2014-01-09 17:15:00
11:35 AM,43.5,43.0,98,30.34,7.0,ENE,6.9,-,N/A,,Overcast,70,2014-01-09 17:35:00
11:55 AM,43.7,43.3,99,30.33,4.0,ENE,6.9,-,N/A,,Overcast,60,2014-01-09 17:55:00
12:15 PM,44.6,44.2,99,30.32,2.0,NE,4.6,-,N/A,,Overcast,50,2014-01-09 18:15:00
12:35 PM,44.8,44.6,99,30.30,2.5,NE,4.6,-,N/A,,Overcast,50,2014-01-09 18:35:00
12:55 PM,45.7,45.7,100,30.29,2.0,NE,5.8,-,N/A,,Drizzle,50,2014-01-09 18:55:00
1:15 PM,45.7,45.5,99,30.29,3.0,North,6.9,-,N/A,,Drizzle,360,2014-01-09 19:15:00
1:35 PM,45.9,45.9,100,30.28,2.5,North,5.8,-,0.01,,Heavy Drizzle,360,2014-01-09 19:35:00
1:55 PM,46.4,46.4,100,30.28,2.5,North,5.8,-,0.02,,Drizzle,10,2014-01-09 19:55:00
2:15 PM,46.8,46.8,100,30.28,3.0,NNE,4.6,-,N/A,,Drizzle,20,2014-01-09 20:15:00
2:35 PM,46.9,46.9,100,30.28,3.0,North,5.8,-,N/A,,Drizzle,360,2014-01-09 20:35:00
2:55 PM,46.6,46.6,100,30.28,3.0,North,6.9,-,0.01,,Heavy Drizzle,360,2014-01-09 20:55:00
3:15 PM,46.8,46.8,100,30.28,3.0,North,5.8,-,0.01,,Drizzle,360,2014-01-09 21:15:00
3:35 PM,46.4,46.4,100,30.28,3.0,North,6.9,-,0.01,,Drizzle,360,2014-01-09 21:35:00
3:55 PM,46.4,46.4,100,30.28,2.5,North,8.1,-,0.02,,Drizzle,360,2014-01-09 21:55:00
4:15 PM,46.2,46.2,100,30.28,3.0,North,8.1,-,N/A,,Drizzle,360,2014-01-09 22:15:00
5:15 PM,45.9,45.9,100,30.29,3.0,North,4.6,-,N/A,,Light Drizzle,360,2014-01-09 23:15:00
5:35 PM,46.0,46.0,100,30.29,4.0,North,5.8,-,N/A,,Light Drizzle,10,2014-01-09 23:35:00
5:55 PM,46.2,46.2,100,30.29,5.0,North,5.8,-,N/A,,Overcast,10,2014-01-09 23:55:00
6:15 PM,46.4,46.4,100,30.30,4.0,North,5.8,-,N/A,Rain,Light Rain,10,2014-01-10 00:15:00
6:35 PM,46.6,46.6,100,30.30,3.0,North,4.6,-,N/A,,Drizzle,360,2014-01-10 00:35:00
6:55 PM,46.9,46.9,100,30.31,3.0,North,5.8,-,0.01,,Drizzle,10,2014-01-10 00:55:00
7:15 PM,46.9,46.9,100,30.31,3.0,NNE,4.6,-,N/A,,Light Drizzle,20,2014-01-10 01:15:00
7:35 PM,47.3,47.3,100,30.32,3.0,North,4.6,-,N/A,,Light Drizzle,10,2014-01-10 01:35:00
7:55 PM,47.3,47.3,100,30.32,3.0,North,5.8,-,N/A,,Overcast,360,2014-01-10 01:55:00
8:15 PM,47.3,47.3,100,30.33,3.0,North,5.8,-,N/A,,Overcast,10,2014-01-10 02:15:00
8:35 PM,47.5,47.5,100,30.32,3.0,NNE,5.8,-,N/A,,Overcast,20,2014-01-10 02:35:00
8:55 PM,47.5,47.5,100,30.32,3.0,NNE,5.8,-,N/A,,Overcast,20,2014-01-10 02:55:00
9:15 PM,47.5,47.5,100,30.31,4.0,NNE,5.8,-,N/A,,Overcast,20,2014-01-10 03:15:00
9:35 PM,47.5,47.5,100,30.30,4.0,NNE,5.8,-,N/A,,Overcast,20,2014-01-10 03:35:00
9:55 PM,47.7,47.7,100,30.30,5.0,NNE,5.8,-,N/A,,Overcast,20,2014-01-10 03:55:00
10:15 PM,47.7,47.7,100,30.29,5.0,North,5.8,-,N/A,,Overcast,10,2014-01-10 04:15:00
10:35 PM,47.7,47.7,100,30.28,3.0,NNE,5.8,-,N/A,,Overcast,20,2014-01-10 04:35:00
10:55 PM,48.0,48.0,100,30.28,3.0,North,5.8,-,N/A,,Overcast,10,2014-01-10 04:55:00
11:15 PM,48.2,48.2,100,30.27,3.0,NNE,5.8,-,N/A,,Overcast,20,2014-01-10 05:15:00
11:35 PM,48.2,48.2,100,30.27,3.0,NNE,6.9,-,N/A,,Overcast,20,2014-01-10 05:35:00
11:55 PM,48.2,48.2,100,30.25,4.0,NE,5.8,-,N/A,,Overcast,40,2014-01-10 05:55:00